Regional Weather Roundup
Issued by NWS

Home | Current Version | Previous Version | Text Only | Print | Product List | Glossary Off
Versions: 1 2 3 4 5 6 7 8 9 10 11 12 13 14 15 16 17 18 19 20 21 22 23 24 25 26 27 28 29 30 31 32 33 34 35 36 37 38 39 40 41 42 43 44 45 46 47 48 49 50

000
ASUS43 KLMK 191302
RWRKY
KENTUCKY REGIONAL WEATHER ROUNDUP
NATIONAL WEATHER SERVICE LOUISVILLE KY
800 AM EST THU JAN 19 2017

NOTE "FAIR" INDICATES FEW OR NO CLOUDS BELOW 12,000 FEET
WITH NO SIGNIFICANT WEATHER AND/OR OBSTRUCTIONS TO VISIBILITY.

KYZ001>023-026-027-061>063-070>075-191400-
WESTERN AND SOUTH CENTRAL KENTUCKY

CITY           SKY/WX    TMP DP  RH WIND       PRES   REMARKS
PADUCAH        CLOUDY    46  43  89 E7        29.93F FOG
HENDERSON      CLOUDY    43  37  81 E6        29.99F
OWENSBORO      CLOUDY    44  39  82 E7        30.01F
HOPKINSVILLE   CLOUDY    45  45 100 E6        29.98F
BOWLING GREEN  LGT RAIN  46  42  86 NE5       30.02F
GLASGOW        NOT AVBL
$$

KYZ024-025-028>034-038-045-046-053-191400-
NORTH CENTRAL KENTUCKY

CITY           SKY/WX    TMP DP  RH WIND       PRES   REMARKS
LOUISVILLE/SDF CLOUDY    42  36  79 SE5       30.05F
LOUISVILLE/LOU CLOUDY    42  37  82 E3        30.06F
FORT KNOX      CLOUDY    40  38  92 E7        30.02F
$$

KYZ035>037-039>044-047>052-055>060-089>105-191400-
NORTHEAST KENTUCKY

CITY           SKY/WX    TMP DP  RH WIND       PRES   REMARKS
LEXINGTON      CLOUDY    40  36  86 SE3       30.07S
COVINGTON      CLOUDY    38  36  92 CALM      30.07S FOG
FRANKFORT      CLOUDY    38  35  89 CALM      30.07S
$$

KYZ054-064>069-076>088-106>120-191400-
SOUTHEAST KENTUCKY

CITY           SKY/WX    TMP DP  RH WIND       PRES   REMARKS
JACKSON        CLOUDY    38  35  89 CALM      30.07S
LONDON         CLOUDY    38  35  89 CALM      30.07S
SOMERSET       CLOUDY    39  39 100 CALM      30.07F
MIDDLESBORO    CLOUDY    39  39 100 CALM      30.09F
MONTICELLO     CLOUDY    44  40  85 VRB7      30.06F
$$





USA.gov is the U.S. government's official web portal to all federal, state and local government web resources and services.